Station IOSN3 - Isle of Shoals, NH Image indicating link to RSS feed of recent meteorological observations for station IOSN3


Conditions at IOSN3 as of
(6:00 am EDT)
1000 GMT on 07/21/2024:
     

Click on the graph icon in the table below to see a time series plot of the last five days of that observation.

5-day plot - Wind Direction Wind Direction (WDIR): W ( 270 deg true )
5-day plot - Wind Speed Wind Speed (WSPD): 14 kts
5-day plot - Wind Gust Wind Gust (GST): 14 kts
5-day plot - Atmospheric Pressure Atmospheric Pressure (PRES):29.94 in
5-day plot - Pressure Tendency Pressure Tendency (PTDY):+0.01 in ( Rising )
5-day plot - Air Temperature Air Temperature (ATMP): 67.3 °F
5-day plot - Dew Point Dew Point (DEWP): 61.7 °F
5-day plot - Wind Speed at 10 Meters Wind Speed at 10 meters (WSPD10M): 14 kts
5-day plot - Wind Speed at 20 Meters Wind Speed at 20 meters (WSPD20M): 14 kts
5-day plot -  Wind Speed, Wind Gust and Atmospheric Pressure Combined plot of Wind Speed, Gust, and Air Pressure
Continuous Winds
TIME
(EDT)
5-day plot - Wind Direction WDIR 5-day plot - Wind Speed WSPD
6:00 amW ( 271 deg ) 14 kts
5:50 amW ( 272 deg ) 13 kts
5:40 amW ( 272 deg ) 11 kts
5:30 amW ( 274 deg ) 10 kts
5:20 amW ( 277 deg ) 11 kts
5:10 amW ( 273 deg ) 11 kts
 
Peak gust during the measurement hour
TIME
(EDT)
5-day plot - Gust Direction GDR 5-day plot - Gust Speed GST
5:53 amW ( 270 deg ) 14 kts
Previous observations
TIME
(EDT)
5-day plot - Wind Direction
WDIR
 
5-day plot - Wind Speed
WSPD
kts
5-day plot - Wind Gust
GST
kts
5-day plot - Wave Height
WVHT
ft
5-day plot - Dominant Wave Period
DPD
sec
5-day plot - Average Wave Period
APD
sec
5-day plot - Mean Wave Direction
MWD
 
5-day plot - Atmospheric Pressure
PRES
in
5-day plot - Pressure Tendency
PTDY
in
5-day plot - Air Temperature
ATMP
°F
5-day plot - Water Temperature
WTMP
°F
5-day plot - Dew Point
DEWP
°F
5-day plot - Salinity
SAL
psu
5-day plot - Visibility
VIS
nmi
5-day plot - Tide (above MLLW)
TIDE
ft
2024-07-21 05:00 am W 12 12----29.93+0.00 69.4- 63.0---
2024-07-21 04:00 am W 9 9----29.92-0.01 70.3- 62.6---
2024-07-21 03:00 amWSW 15 15----29.93-0.01 72.1- 62.2---
2024-07-21 02:00 amWSW 15 15----29.93-0.02 73.6- 61.9---
2024-07-21 01:00 amWSW 17 17----29.94-0.02 74.8- 61.7---
2024-07-21 12:00 am SW 17 17----29.94-0.01 74.8- 61.3---
2024-07-20 11:00 pm SW 13 14----29.95+0.00 75.2- 59.0---
2024-07-20 10:00 pm SW 17 18----29.96+0.01 77.9- 57.6---
2024-07-20 09:00 pm SW 14 15----29.96+0.01 78.4- 54.7---
2024-07-20 08:00 pm SW 17 17----29.95-0.01 80.1- 53.8---
2024-07-20 07:00 pmSSW 13 14----29.95-0.03 73.8- 53.8---
2024-07-20 06:00 pm S 17 18----29.94-0.05 78.4- 51.3---
2024-07-20 05:00 pm S 18 18----29.96-0.05 73.2- 55.0---
2024-07-20 04:00 pm S 16 17----29.97-0.06 70.9- 55.9---
2024-07-20 03:00 pm S 15 16----29.99-0.05 72.3- 55.8---
2024-07-20 02:00 pm S 14 15----30.01-0.04 75.4- 49.1---
2024-07-20 01:00 pm S 10 12----30.03-0.03 73.6- 51.6---
2024-07-20 12:00 pm S 9 10----30.04-0.03 70.2- 56.5---
2024-07-20 11:00 amSSW 8 9----30.05-0.02 72.9- 54.3---
2024-07-20 10:00 am SW 6 6----30.06+0.00 68.9- 55.0---
2024-07-20 09:00 am W 7 7----30.07+0.01 68.7- 54.3---
2024-07-20 08:00 am W 9 9----30.07+0.02 67.1- 54.0---
2024-07-20 07:00 am W 7 8----30.07+0.01 65.1- 54.0---
2024-07-20 06:00 am W 8 9----30.06+0.00 64.9- 54.3---